Location: Ferchesar
(52.6477°N, 12.4298°E)
Time: 01:49:22
(UTC+01:00)

Transit 2A - Pass Details

Date: 08 December 2021
Orbit: 591 x 967 km, 66.7° (Epoch: 17 January)

Event Time Altitude Azimuth Distance (km) Brightness Sun altitude
Exits shadow 04:25:19 24° 3° (N) 1,909 8.0 -32.5°
Maximum altitude 04:25:47 24° 10° (N) 1,901 8.1 -32.4°
Drops below altitude 10° 04:30:50 10° 62° (ENE) 2,709 9.6 -31.6°
Sets 04:33:57 0° 76° (ENE) 3,636 10.6 -31.1°
